Rochester, Indiana, United States (46975)
Lat: 41.06N, Lon: 86.22W
Wx Zone: INZ015
Local Info
Past Weather Observations for Today

NOTE: This archive is for the closest National Weather Service station to Rochester. Information may differ from the station used for current weather conditions.

Click here for Long-term Archive

Time Weather Temperature Dewpoint Humidity Pressure Winds Precip Visibility
09:35
Clear
18°F / -8°C 10°F / -12°C 73% 30.51 in
(1033 mb)
W 6.9 mph
(W 11 kph)
- 7SM
09:15
Clear
16°F / -9°C 10°F / -12°C 79% 30.48 in
(1032 mb)
W 5.8 mph
(W 9 kph)
- 7SM
08:55
Clear
14°F / -10°C 10°F / -12°C 85% 30.48 in
(1032 mb)
SSW 5.8 mph
(SSW 9 kph)
- 7SM
08:35
Clear
Fog And Mist
14°F / -10°C 10°F / -12°C 85% 30.48 in
(1032 mb)
SSW 6.9 mph
(SSW 11 kph)
- 5SM
08:15
Clear
Fog And Mist
12°F / -11°C 9°F / -13°C 85% 30.45 in
(1031 mb)
SSW 5.8 mph
(SSW 9 kph)
- 5SM
07:55
Clear
Fog And Mist
12°F / -11°C 9°F / -13°C 85% 30.45 in
(1031 mb)
SSW 3.5 mph
(SSW 6 kph)
- 5SM
07:35
Clear
Fog And Mist
10°F / -12°C 9°F / -13°C 92% 30.45 in
(1031 mb)
SSW 5.8 mph
(SSW 9 kph)
- 5SM
07:15
Clear
10°F / -12°C 9°F / -13°C 92% 30.45 in
(1031 mb)
SSW 4.6 mph
(SSW 7 kph)
- 7SM
06:55
Clear
10°F / -12°C 9°F / -13°C 92% 30.42 in
(1030 mb)
SSW 4.6 mph
(SSW 7 kph)
- 7SM
06:35
Clear
10°F / -12°C 9°F / -13°C 92% 30.42 in
(1030 mb)
SSW 4.6 mph
(SSW 7 kph)
- 7SM
06:15
Clear
12°F / -11°C 9°F / -13°C 85% 30.42 in
(1030 mb)
SSW 5.8 mph
(SSW 9 kph)
- 7SM
05:55
Clear
12°F / -11°C 9°F / -13°C 85% 30.42 in
(1030 mb)
SSW 5.8 mph
(SSW 9 kph)
- 7SM
05:35
Clear
10°F / -12°C 9°F / -13°C 92% 30.42 in
(1030 mb)
SSW 5.8 mph
(SSW 9 kph)
- 7SM
05:15
Clear
10°F / -12°C 9°F / -13°C 92% 30.39 in
(1029 mb)
SSW 5.8 mph
(SSW 9 kph)
- 7SM
04:55
Clear
12°F / -11°C 9°F / -13°C 85% 30.39 in
(1029 mb)
W 5.8 mph
(W 9 kph)
- 7SM
04:35
Clear
12°F / -11°C 9°F / -13°C 85% 30.39 in
(1029 mb)
SSW 8.1 mph
(SSW 13 kph)
- 7SM
04:15
Clear
10°F / -12°C 9°F / -13°C 92% 30.39 in
(1029 mb)
SSW 8.1 mph
(SSW 13 kph)
- 7SM
03:55
Clear
12°F / -11°C 9°F / -13°C 85% 30.36 in
(1028 mb)
SSW 8.1 mph
(SSW 13 kph)
- 7SM
03:35
Clear
12°F / -11°C 10°F / -12°C 92% 30.36 in
(1028 mb)
SSW 8.1 mph
(SSW 13 kph)
- 7SM
03:15
Clear
12°F / -11°C 9°F / -13°C 85% 30.36 in
(1028 mb)
SSW 8.1 mph
(SSW 13 kph)
- 7SM
02:55
Clear
12°F / -11°C 10°F / -12°C 92% 30.36 in
(1028 mb)
SSW 6.9 mph
(SSW 11 kph)
- 7SM
02:35
Clear
12°F / -11°C 10°F / -12°C 92% 30.36 in
(1028 mb)
W 8.1 mph
(W 13 kph)
- 7SM
02:15
Clear
12°F / -11°C 10°F / -12°C 92% 30.36 in
(1028 mb)
SSW 6.9 mph
(SSW 11 kph)
- 7SM
01:55
Clear
14°F / -10°C 12°F / -11°C 92% 30.33 in
(1027 mb)
SSW 6.9 mph
(SSW 11 kph)
- 7SM
01:35
Clear
16°F / -9°C 14°F / -10°C 93% 30.33 in
(1027 mb)
SSW 6.9 mph
(SSW 11 kph)
- 7SM
01:15
Clear
18°F / -8°C 14°F / -10°C 86% 30.33 in
(1027 mb)
SSW 6.9 mph
(SSW 11 kph)
- 10SM
00:55
Clear
18°F / -8°C 14°F / -10°C 86% 30.33 in
(1027 mb)
SSW 6.9 mph
(SSW 11 kph)
- 10SM
00:35
Clear
18°F / -8°C 14°F / -10°C 86% 30.33 in
(1027 mb)
SSW 9.2 mph
(SSW 15 kph)
- 10SM
00:15
Clear
19°F / -7°C 14°F / -10°C 79% 30.3 in
(1026 mb)
SSW 8.1 mph
(SSW 13 kph)
- 10SM
Time Weather Temperature Dewpoint Humidity Pressure Winds Precip Visibility


Weather for websites

WeatherForYou.com, LLC is not responsible for any damages or problems caused by this service. Current weather conditions are obtained from the closest station including government and personal stations which may have varying degrees of accuracy. Weather forecasts are derived from the NOAA NDFD. Like all things, this site belongs to Jesus Christ... He just trusts me to maintain it. If you have any questions or comments email webmaster@weatherforyou.com

Copyright © 2015, WeatherForYou.com LLC. All rights reserved.